When you browse on this site, cookies collect data to enhance your experience and personalize the content and advertising you see.
Visit our Privacy Policy to learn more. By continuing to use the site, you agree to this use of cookies and data.
  • In Spain
  • List of Countries
  • For 7 days
  • Water Temperature
  • Weather Map
  • Weather Widgets
  • user-avatar
    Login

    Hourly Weather Tshlykovo

    Today, 17 August, Saturday

    Time Temperature Precipitation Wind Pressure Humidity
    00:00 +17°C° 0.2 mm 5 mps 742 mmHg 95%
    01:00 +17°C° 0.2 mm 5 mps 742 mmHg 95%
    02:00 +18°C° 0 mm 4 mps 742 mmHg 93%
    03:00 +18°C° 0 mm 4 mps 742 mmHg 94%
    04:00 +18°C° 0 mm 4 mps 742 mmHg 95%
    05:00 +18°C° 0 mm 4 mps 742 mmHg 95%
    06:00 +18°C° 0.1 mm 4 mps 742 mmHg 94%
    07:00 +17°C° 0.1 mm 5 mps 742 mmHg 94%
    08:00 +19°C° 0.1 mm 5 mps 742 mmHg 93%
    09:00 +20°C° 0.3 mm 5 mps 742 mmHg 91%
    10:00 +20°C° 0.3 mm 5 mps 742 mmHg 90%
    11:00 +21°C° 0.3 mm 5 mps 742 mmHg 88%
    12:00 +21°C° 0.7 mm 5 mps 742 mmHg 88%
    13:00 +21°C° 0.7 mm 4 mps 741 mmHg 88%
    14:00 +21°C° 0.7 mm 4 mps 741 mmHg 89%
    15:00 +20°C° 2.5 mm 4 mps 741 mmHg 91%
    16:00 +20°C° 2.5 mm 3 mps 741 mmHg 93%
    17:00 +19°C° 2.5 mm 2 mps 741 mmHg 96%
    18:00 +19°C° 1.5 mm 2 mps 740 mmHg 96%
    19:00 +18°C° 1.5 mm 2 mps 740 mmHg 96%
    20:00 +19°C° 1.5 mm 1 mps 740 mmHg 97%
    21:00 +19°C° 0.4 mm 1 mps 740 mmHg 96%
    22:00 +19°C° 0.4 mm 1 mps 740 mmHg 96%
    23:00 +19°C° 0.4 mm 1 mps 740 mmHg 96%

    Tomorrow, 18 August, Sunday

    Time Temperature Precipitation Wind Pressure Humidity
    00:00 +17°C° 0 mm 2 mps 740 mmHg 97%
    01:00 +17°C° 0 mm 2 mps 740 mmHg 97%
    02:00 +16°C° 0 mm 2 mps 740 mmHg 98%
    03:00 +16°C° 0 mm 2 mps 740 mmHg 98%
    04:00 +16°C° 0 mm 2 mps 741 mmHg 98%
    05:00 +16°C° 0 mm 1 mps 741 mmHg 98%
    06:00 +17°C° 0 mm 2 mps 741 mmHg 95%
    07:00 +18°C° 0 mm 2 mps 741 mmHg 92%
    08:00 +19°C° 0 mm 2 mps 742 mmHg 90%
    09:00 +19°C° 0 mm 2 mps 742 mmHg 86%
    10:00 +20°C° 0 mm 2 mps 742 mmHg 83%
    11:00 +21°C° 0 mm 2 mps 743 mmHg 79%
    12:00 +21°C° 0 mm 2 mps 743 mmHg 78%
    13:00 +21°C° 0 mm 3 mps 743 mmHg 77%
    14:00 +22°C° 0 mm 3 mps 743 mmHg 76%
    15:00 +21°C° 0 mm 3 mps 744 mmHg 77%
    16:00 +21°C° 0 mm 3 mps 744 mmHg 78%
    17:00 +21°C° 0 mm 3 mps 744 mmHg 80%
    18:00 +19°C° 0 mm 3 mps 745 mmHg 84%
    19:00 +18°C° 0 mm 2 mps 745 mmHg 89%
    20:00 +16°C° 0 mm 2 mps 746 mmHg 94%
    21:00 +16°C° 0 mm 1 mps 746 mmHg 94%
    22:00 +15°C° 0 mm 1 mps 746 mmHg 94%
    23:00 +15°C° 0 mm 1 mps 747 mmHg 94%

    Day after tomorrow, 19 August, Monday

    Time Temperature Precipitation Wind Pressure Humidity
    00:00 +15°C° 0 mm 1 mps 747 mmHg 94%
    01:00 +15°C° 0 mm 1 mps 747 mmHg 94%
    02:00 +14°C° 0 mm 1 mps 748 mmHg 94%
    03:00 +14°C° 0 mm 1 mps 748 mmHg 94%
    04:00 +14°C° 0 mm 1 mps 748 mmHg 94%
    05:00 +14°C° 0 mm 1 mps 749 mmHg 95%
    06:00 +16°C° 0 mm 1 mps 749 mmHg 90%
    07:00 +19°C° 0 mm 1 mps 750 mmHg 85%
    08:00 +20°C° 0 mm 1 mps 750 mmHg 80%
    09:00 +21°C° 0 mm 1 mps 750 mmHg 75%
    10:00 +23°C° 0 mm 1 mps 750 mmHg 70%
    11:00 +24°C° 0 mm 1 mps 750 mmHg 65%
    12:00 +24°C° 0 mm 1 mps 750 mmHg 62%
    13:00 +25°C° 0 mm 1 mps 751 mmHg 59%
    14:00 +25°C° 0 mm 1 mps 751 mmHg 56%
    15:00 +25°C° 0 mm 1 mps 751 mmHg 60%
    16:00 +25°C° 0 mm 1 mps 751 mmHg 63%
    17:00 +25°C° 0 mm 1 mps 751 mmHg 67%
    18:00 +23°C° 0 mm 1 mps 751 mmHg 70%
    19:00 +21°C° 0 mm 1 mps 751 mmHg 74%
    20:00 +19°C° 0 mm 1 mps 751 mmHg 78%
    21:00 +19°C° 0 mm 1 mps 751 mmHg 80%
    22:00 +19°C° 0 mm 1 mps 751 mmHg 81%
    23:00 +18°C° 0 mm 1 mps 752 mmHg 83%

    20 August, Tuesday

    Time Temperature Precipitation Wind Pressure Humidity
    00:00 +18°C° 0 mm 1 mps 752 mmHg 84%
    01:00 +18°C° 0 mm 1 mps 752 mmHg 85%
    02:00 +15°C° 0 mm 0 mps 752 mmHg 86%
    03:00 +15°C° 0 mm 0 mps 752 mmHg 87%
    04:00 +15°C° 0 mm 0 mps 752 mmHg 87%
    05:00 +16°C° 0 mm 1 mps 752 mmHg 87%
    06:00 +19°C° 0 mm 1 mps 752 mmHg 83%
    07:00 +21°C° 0 mm 1 mps 752 mmHg 78%
    08:00 +22°C° 0 mm 1 mps 753 mmHg 73%
    09:00 +24°C° 0 mm 1 mps 752 mmHg 69%
    10:00 +25°C° 0 mm 1 mps 752 mmHg 64%
    11:00 +26°C° 0 mm 1 mps 752 mmHg 60%
    12:00 +26°C° 0 mm 1 mps 752 mmHg 57%
    13:00 +25°C° 0 mm 0 mps 752 mmHg 54%
    14:00 +25°C° 0 mm 0 mps 752 mmHg 52%
    15:00 +25°C° 0 mm 0 mps 752 mmHg 55%
    16:00 +27°C° 0 mm 1 mps 752 mmHg 59%
    17:00 +27°C° 0 mm 1 mps 751 mmHg 62%
    18:00 +25°C° 0 mm 1 mps 752 mmHg 65%
    19:00 +23°C° 0 mm 1 mps 752 mmHg 68%
    20:00 +21°C° 0 mm 1 mps 752 mmHg 71%
    21:00 +20°C° 0 mm 1 mps 752 mmHg 73%
    22:00 +20°C° 0 mm 1 mps 752 mmHg 75%
    23:00 +19°C° 0 mm 1 mps 752 mmHg 77%

    21 August, Wednesday

    Time Temperature Precipitation Wind Pressure Humidity
    00:00 +19°C° 0 mm 1 mps 752 mmHg 79%
    01:00 +19°C° 0 mm 1 mps 752 mmHg 81%
    02:00 +19°C° 0 mm 1 mps 752 mmHg 83%
    03:00 +18°C° 0 mm 1 mps 752 mmHg 84%
    04:00 +18°C° 0 mm 1 mps 752 mmHg 85%
    05:00 +18°C° 0 mm 1 mps 752 mmHg 85%
    06:00 +19°C° 0 mm 2 mps 752 mmHg 81%
    07:00 +21°C° 0 mm 2 mps 752 mmHg 77%
    08:00 +23°C° 0 mm 2 mps 752 mmHg 73%
    09:00 +24°C° 0 mm 2 mps 752 mmHg 69%
    10:00 +25°C° 0 mm 3 mps 752 mmHg 64%
    11:00 +27°C° 0 mm 3 mps 751 mmHg 60%
    12:00 +27°C° 0 mm 3 mps 751 mmHg 60%
    13:00 +27°C° 0 mm 3 mps 751 mmHg 60%
    14:00 +28°C° 0 mm 4 mps 750 mmHg 60%
    15:00 +27°C° 0 mm 3 mps 750 mmHg 65%
    16:00 +27°C° 0 mm 3 mps 750 mmHg 69%
    17:00 +26°C° 0 mm 3 mps 749 mmHg 74%
    18:00 +25°C° 0 mm 3 mps 749 mmHg 79%
    19:00 +24°C° 0 mm 2 mps 749 mmHg 85%
    20:00 +21°C° 0 mm 2 mps 749 mmHg 91%
    21:00 +21°C° 0 mm 2 mps 749 mmHg 92%
    22:00 +21°C° 0 mm 2 mps 749 mmHg 92%
    23:00 +21°C° 0 mm 2 mps 749 mmHg 93%

    22 August, Thursday

    Time Temperature Precipitation Wind Pressure Humidity
    00:00 +20°C° 0 mm 2 mps 749 mmHg 93%
    01:00 +21°C° 0 mm 1 mps 748 mmHg 93%
    02:00 +21°C° 0 mm 1 mps 748 mmHg 93%
    03:00 +21°C° 0 mm 1 mps 748 mmHg 93%
    04:00 +21°C° 0 mm 1 mps 748 mmHg 94%
    05:00 +18°C° 0 mm 0 mps 748 mmHg 94%
    06:00 +22°C° 0 mm 1 mps 748 mmHg 90%
    07:00 +23°C° 0 mm 1 mps 748 mmHg 86%
    08:00 +25°C° 0 mm 2 mps 748 mmHg 82%
    09:00 +26°C° 0 mm 2 mps 748 mmHg 78%
    10:00 +27°C° 0 mm 3 mps 748 mmHg 73%
    11:00 +28°C° 0 mm 4 mps 749 mmHg 69%
    12:00 +28°C° 0 mm 4 mps 749 mmHg 67%
    13:00 +28°C° 0 mm 4 mps 749 mmHg 65%
    14:00 +29°C° 0 mm 4 mps 749 mmHg 63%
    15:00 +27°C° 0 mm 4 mps 749 mmHg 69%
    16:00 +26°C° 0 mm 5 mps 749 mmHg 74%
    17:00 +23°C° 0 mm 5 mps 749 mmHg 80%
    18:00 +22°C° 0 mm 5 mps 750 mmHg 81%
    19:00 +20°C° 0 mm 4 mps 750 mmHg 83%
    20:00 +19°C° 0 mm 4 mps 751 mmHg 84%
    21:00 +18°C° 0 mm 4 mps 751 mmHg 84%
    22:00 +18°C° 0 mm 4 mps 751 mmHg 84%
    23:00 +16°C° 0 mm 5 mps 752 mmHg 83%
    Show more